Time,TemperatureF,DewpointF,PressureIn,WindDirection,WindDirectionDegrees,WindSpeedMPH,WindSpeedGustMPH,Humidity,HourlyPrecipIn,Conditions,Clouds,dailyrainin,SoftwareType,DateUTC
2014-12-28 00:11:00,31.0,25.0,30.01,ENE,69,0.0,-999.0,79,-99.99,,,-99.99,,2014-12-28 08:11:00,
2014-12-28 00:22:00,31.0,25.0,30.01,East,83,1.0,-999.0,77,-99.99,,,-99.99,,2014-12-28 08:22:00,
2014-12-28 00:42:00,28.0,23.0,30.01,ENE,76,1.0,-999.0,81,-99.99,,,-99.99,,2014-12-28 08:42:00,
2014-12-28 00:52:00,29.0,25.0,30.01,ENE,77,1.0,-999.0,85,-99.99,,,-99.99,,2014-12-28 08:52:00,
2014-12-28 01:22:00,30.0,26.0,30.00,East,88,1.0,-999.0,85,-99.99,,,-99.99,,2014-12-28 09:22:00,
2014-12-28 01:54:00,31.0,27.0,30.00,SSE,150,1.0,-999.0,84,-99.99,,,-99.99,,2014-12-28 09:54:00,
2014-12-28 02:13:00,32.0,27.0,30.01,ENE,78,0.0,-999.0,83,-99.99,,,-99.99,,2014-12-28 10:13:00,
2014-12-28 02:23:00,32.0,28.0,30.01,East,79,1.0,-999.0,84,-99.99,,,-99.99,,2014-12-28 10:23:00,
2014-12-28 02:42:00,32.0,28.0,30.01,East,95,0.0,-999.0,84,-99.99,,,-99.99,,2014-12-28 10:42:00,
2014-12-28 02:53:00,32.0,28.0,30.00,East,93,1.0,-999.0,84,-99.99,,,-99.99,,2014-12-28 10:53:00,
2014-12-28 03:13:00,32.0,29.0,30.01,East,96,0.0,-999.0,87,-99.99,,,-99.99,,2014-12-28 11:13:00,
2014-12-28 03:22:00,32.0,29.0,30.01,East,96,0.0,-999.0,90,-99.99,,,-99.99,,2014-12-28 11:22:00,
2014-12-28 03:43:00,31.0,29.0,30.00,ENE,77,0.0,-999.0,91,-99.99,,,-99.99,,2014-12-28 11:43:00,
2014-12-28 03:52:00,31.0,29.0,30.00,ENE,78,0.0,-999.0,92,-99.99,,,-99.99,,2014-12-28 11:52:00,
2014-12-28 04:12:00,31.0,29.0,30.00,ENE,78,0.0,-999.0,93,-99.99,,,-99.99,,2014-12-28 12:12:00,
2014-12-28 04:22:00,31.0,29.0,30.01,ENE,77,0.0,-999.0,93,-99.99,,,-99.99,,2014-12-28 12:22:00,
2014-12-28 04:42:00,31.0,29.0,30.00,ENE,78,0.0,-999.0,93,-99.99,,,-99.99,,2014-12-28 12:42:00,
2014-12-28 04:52:00,31.0,29.0,30.00,ENE,77,0.0,-999.0,93,-99.99,,,-99.99,,2014-12-28 12:52:00,
2014-12-28 05:22:00,32.0,30.0,30.00,ENE,77,0.0,-999.0,93,-99.99,,,-99.99,,2014-12-28 13:22:00,
2014-12-28 05:42:00,32.0,30.0,30.00,ENE,78,0.0,-999.0,93,-99.99,,,-99.99,,2014-12-28 13:42:00,
2014-12-28 05:52:00,32.0,30.0,30.00,ENE,78,0.0,-999.0,92,-99.99,,,-99.99,,2014-12-28 13:52:00,
2014-12-28 06:22:00,32.0,30.0,30.01,East,90,1.0,-999.0,91,-99.99,,,-99.99,,2014-12-28 14:22:00,
2014-12-28 06:42:00,32.0,30.0,30.01,East,88,0.0,-999.0,92,-99.99,,,-99.99,,2014-12-28 14:42:00,
2014-12-28 06:52:00,32.0,30.0,30.01,East,87,0.0,-999.0,92,-99.99,,,-99.99,,2014-12-28 14:52:00,
2014-12-28 07:22:00,32.0,30.0,30.01,ESE,117,1.0,-999.0,92,-99.99,,,-99.99,,2014-12-28 15:22:00,
2014-12-28 07:44:00,32.0,30.0,30.01,East,80,0.0,-999.0,93,-99.99,,,-99.99,,2014-12-28 15:44:00,
2014-12-28 07:53:00,32.0,30.0,30.02,East,95,0.0,-999.0,94,-99.99,,,-99.99,,2014-12-28 15:53:00,
2014-12-28 08:23:00,32.0,30.0,30.03,East,95,0.0,-999.0,92,-99.99,,,-99.99,,2014-12-28 16:23:00,
2014-12-28 08:53:00,32.0,30.0,30.03,East,95,0.0,-999.0,91,-99.99,,,-99.99,,2014-12-28 16:53:00,
2014-12-28 09:23:00,33.0,31.0,30.04,ENE,76,0.0,-999.0,91,-99.99,,,-99.99,,2014-12-28 17:23:00,
2014-12-28 09:43:00,34.0,31.0,30.05,ENE,73,0.0,-999.0,87,-99.99,,,-99.99,,2014-12-28 17:43:00,
2014-12-28 09:52:00,34.0,31.0,30.05,ENE,73,0.0,-999.0,87,-99.99,,,-99.99,,2014-12-28 17:52:00,
2014-12-28 10:12:00,34.0,30.0,30.05,ENE,73,1.0,-999.0,86,-99.99,,,-99.99,,2014-12-28 18:12:00,
2014-12-28 10:22:00,34.0,30.0,30.05,ENE,74,1.0,-999.0,86,-99.99,,,-99.99,,2014-12-28 18:22:00,
2014-12-28 10:44:00,33.0,29.0,30.06,ENE,61,0.0,-999.0,86,-99.99,,,-99.99,,2014-12-28 18:44:00,
2014-12-28 10:53:00,33.0,30.0,30.06,ENE,72,0.0,-999.0,90,-99.99,,,-99.99,,2014-12-28 18:53:00,
2014-12-28 11:21:00,33.0,30.0,30.06,NNE,26,1.0,-999.0,89,-99.99,,,-99.99,,2014-12-28 19:21:00,
2014-12-28 11:42:00,34.0,30.0,30.06,SW,229,0.0,-999.0,86,-99.99,,,-99.99,,2014-12-28 19:42:00,
2014-12-28 11:52:00,34.0,30.0,30.05,ENE,65,0.0,-999.0,85,-99.99,,,-99.99,,2014-12-28 19:52:00,
2014-12-28 12:22:00,34.0,30.0,30.05,East,87,0.0,-999.0,84,-99.99,,,-99.99,,2014-12-28 20:22:00,
2014-12-28 12:42:00,34.0,29.0,30.05,ESE,103,0.0,-999.0,83,-99.99,,,-99.99,,2014-12-28 20:42:00,
2014-12-28 12:52:00,34.0,29.0,30.04,NNE,30,0.0,-999.0,82,-99.99,,,-99.99,,2014-12-28 20:52:00,
2014-12-28 13:12:00,34.0,29.0,30.05,NE,39,0.0,-999.0,81,-99.99,,,-99.99,,2014-12-28 21:12:00,
2014-12-28 13:21:00,34.0,29.0,30.04,NW,304,1.0,-999.0,81,-99.99,,,-99.99,,2014-12-28 21:21:00,
2014-12-28 13:43:00,34.0,29.0,30.04,WSW,248,1.0,-999.0,83,-99.99,,,-99.99,,2014-12-28 21:43:00,
2014-12-28 13:53:00,33.0,29.0,30.05,WSW,248,0.0,-999.0,86,-99.99,,,-99.99,,2014-12-28 21:53:00,
2014-12-28 14:23:00,32.0,29.0,30.04,ENE,78,1.0,-999.0,89,-99.99,,,-99.99,,2014-12-28 22:23:00,
2014-12-28 14:43:00,32.0,29.0,30.04,East,84,1.0,-999.0,89,-99.99,,,-99.99,,2014-12-28 22:43:00,
2014-12-28 14:53:00,32.0,30.0,30.04,East,90,0.0,-999.0,91,-99.99,,,-99.99,,2014-12-28 22:53:00,
2014-12-28 15:22:00,32.0,30.0,30.04,East,87,2.0,-999.0,92,-99.99,,,-99.99,,2014-12-28 23:22:00,
2014-12-28 15:43:00,32.0,30.0,30.04,ESE,111,3.0,-999.0,91,-99.99,,,-99.99,,2014-12-28 23:43:00,
2014-12-28 15:53:00,32.0,29.0,30.04,East,86,2.0,-999.0,90,-99.99,,,-99.99,,2014-12-28 23:53:00,
2014-12-28 16:22:00,31.0,29.0,30.04,East,94,1.0,-999.0,93,-99.99,,,-99.99,,2014-12-29 00:22:00,
2014-12-28 16:42:00,31.0,29.0,30.04,ESE,116,0.0,-999.0,94,-99.99,,,-99.99,,2014-12-29 00:42:00,
2014-12-28 16:52:00,31.0,29.0,30.04,ESE,123,0.0,-999.0,94,-99.99,,,-99.99,,2014-12-29 00:52:00,
2014-12-28 17:11:00,32.0,30.0,30.04,ENE,74,0.0,-999.0,93,-99.99,,,-99.99,,2014-12-29 01:11:00,
2014-12-28 17:21:00,32.0,30.0,30.04,ENE,67,1.0,-999.0,93,-99.99,,,-99.99,,2014-12-29 01:21:00,
2014-12-28 17:42:00,32.0,30.0,30.05,NNE,26,1.0,-999.0,94,-99.99,,,-99.99,,2014-12-29 01:42:00,
2014-12-28 17:52:00,32.0,32.0,30.04,NNE,26,0.0,-999.0,100,-99.99,,,-99.99,,2014-12-29 01:52:00,
2014-12-28 18:22:00,31.0,29.0,30.06,NNE,26,0.0,-999.0,93,-99.99,,,-99.99,,2014-12-29 02:22:00,
2014-12-28 18:42:00,29.0,27.0,30.05,NNE,26,0.0,-999.0,93,-99.99,,,-99.99,,2014-12-29 02:42:00,
2014-12-28 18:52:00,29.0,27.0,30.05,NNE,26,0.0,-999.0,93,-99.99,,,-99.99,,2014-12-29 02:52:00,
2014-12-28 19:12:00,26.0,25.0,30.05,East,94,0.0,-999.0,95,-99.99,,,-99.99,,2014-12-29 03:12:00,
2014-12-28 19:22:00,27.0,26.0,30.05,ESE,110,0.0,-999.0,94,-99.99,,,-99.99,,2014-12-29 03:22:00,
2014-12-28 19:43:00,26.0,25.0,30.05,East,90,0.0,-999.0,95,-99.99,,,-99.99,,2014-12-29 03:43:00,
2014-12-28 19:53:00,27.0,26.0,30.05,East,87,0.0,-999.0,95,-99.99,,,-99.99,,2014-12-29 03:53:00,
2014-12-28 20:22:00,28.0,27.0,30.06,East,88,0.0,-999.0,95,-99.99,,,-99.99,,2014-12-29 04:22:00,
2014-12-28 20:43:00,28.0,27.0,30.06,East,87,0.0,-999.0,95,-99.99,,,-99.99,,2014-12-29 04:43:00,
2014-12-28 20:53:00,29.0,28.0,30.06,East,88,0.0,-999.0,95,-99.99,,,-99.99,,2014-12-29 04:53:00,
2014-12-28 21:22:00,29.0,28.0,30.06,East,87,0.0,-999.0,95,-99.99,,,-99.99,,2014-12-29 05:22:00,
2014-12-28 21:42:00,30.0,29.0,30.06,East,87,0.0,-999.0,95,-99.99,,,-99.99,,2014-12-29 05:42:00,
2014-12-28 21:53:00,30.0,29.0,30.06,East,88,0.0,-999.0,95,-99.99,,,-99.99,,2014-12-29 05:53:00,
2014-12-28 22:12:00,29.0,28.0,30.06,East,88,0.0,-999.0,95,-99.99,,,-99.99,,2014-12-29 06:12:00,
2014-12-28 22:22:00,29.0,27.0,30.06,ESE,105,0.0,-999.0,92,-99.99,,,-99.99,,2014-12-29 06:22:00,
2014-12-28 22:42:00,29.0,26.0,30.05,East,101,0.0,-999.0,88,-99.99,,,-99.99,,2014-12-29 06:42:00,
2014-12-28 22:52:00,28.0,25.0,30.05,NE,34,0.0,-999.0,90,-99.99,,,-99.99,,2014-12-29 06:52:00,
2014-12-28 23:22:00,28.0,26.0,30.05,NE,34,0.0,-999.0,91,-99.99,,,-99.99,,2014-12-29 07:22:00,